Volver al catálogo

STARLINK-5360

ActivoComunicacionesVLEO
NORAD 54846·PAYLOAD·🇺🇸 United States

Lanzado Dec 28, 2022 desde Cape Canaveral Space Force Station

Loading…

Próximos Pases (próximas 24 horas)

TLE

ActualizadoSource: CelesTrak SupGP

Época: Sep 14, 2026, 21:50 UTC

1 54846C 22177AC  26257.91020833 -.00018130  00000+0 -65688-3 0  2571
2 54846  43.0000 144.0190 0000933 252.0962  60.1795 15.27578024    16

Sigue STARLINK-5360 en tiempo real con AllMySat

Download on the App Store